period_start,C,m1,H,J0,J1,J2,J3,J4,J5,JA,JB,JC,JD,JJ,JK,JN,#
2016-09-23 00:01:14,0.02,0.07,0.00,16.64,23.16,26.41,14.86,48.39,1011.33,2053.38,3498.01,3168.05,3570.79,599.71,605.71,21.58,0000 0000 0000 0000 000000
2016-09-23 00:06:15,0.02,0.08,0.00,16.61,23.14,26.44,14.93,48.57,1011.31,2053.76,3498.02,3168.25,3570.96,600.12,606.05,21.63,0000 0000 0000 0000 000000
2016-09-23 00:11:16,-0.01,0.08,0.00,16.62,23.13,26.40,14.94,48.67,1011.28,2053.88,3498.04,3168.56,3570.97,599.96,605.92,21.68,0000 0000 0000 0000 000000
2016-09-23 00:16:17,0.01,0.08,0.00,16.55,23.12,26.39,14.91,48.50,1011.26,2053.97,3498.04,3168.87,3570.97,599.94,606.04,21.73,0000 0000 0000 0000 000000
2016-09-23 00:21:19,-0.00,0.08,0.00,16.56,23.10,26.37,14.97,48.55,1011.25,2053.98,3498.04,3168.93,3570.98,599.93,606.15,21.78,0000 0000 0000 0000 000000
2016-09-23 00:26:20,0.00,0.08,0.00,16.56,23.09,26.38,14.90,48.44,1011.25,2053.99,3498.04,3168.95,3570.98,599.93,605.93,21.83,0000 0000 0000 0000 000000
2016-09-23 00:31:21,0.00,0.08,0.00,16.56,23.07,26.37,14.91,48.27,1011.25,2053.99,3498.06,3168.98,3570.99,599.91,606.05,21.88,0000 0000 0000 0000 000000
2016-09-23 00:36:23,0.00,0.08,0.00,16.36,23.07,26.37,14.92,48.58,1011.25,2053.99,3498.05,3168.98,3570.99,600.08,606.70,21.93,0000 0000 0000 0000 000000
2016-09-23 00:41:24,0.00,0.08,0.00,16.41,23.05,26.40,14.89,48.52,1011.25,2053.99,3498.02,3168.99,3570.99,599.81,606.19,21.98,0000 0000 0000 0000 000000
2016-09-23 00:46:25,0.00,0.08,0.00,16.54,23.04,26.43,14.99,48.65,1011.25,2053.99,3498.02,3168.99,3570.99,600.21,606.36,22.03,0000 0000 0000 0000 000000
2016-09-23 00:51:27,0.00,0.08,0.00,16.72,23.04,26.46,14.89,48.49,1011.25,2053.99,3498.02,3168.99,3570.99,599.96,605.68,22.08,0000 0000 0000 0000 000000
2016-09-23 00:56:28,0.00,0.08,0.00,16.88,23.03,26.44,14.94,48.55,1011.25,2053.99,3498.02,3168.99,3570.98,600.01,605.47,22.13,0000 0000 0000 0000 000000
2016-09-23 01:01:29,0.00,0.08,0.00,16.97,23.02,26.41,14.90,48.45,1011.25,2054.02,3498.02,3168.99,3570.98,599.91,605.13,22.18,0000 0000 0000 0000 000000
2016-09-23 01:06:31,0.00,0.08,0.00,17.00,23.02,26.33,14.90,48.58,1011.25,2054.02,3498.02,3168.99,3570.98,600.02,605.11,22.24,0000 0000 0000 0000 000000
2016-09-23 01:11:32,0.00,0.08,0.00,17.09,23.03,26.34,14.86,48.43,1011.24,2054.03,3498.03,3168.99,3570.99,599.95,604.96,22.29,0000 0000 0000 0000 000000
2016-09-23 01:16:33,-0.00,0.08,0.00,17.19,23.04,26.35,14.90,48.58,1011.24,2054.02,3498.01,3168.99,3570.92,600.51,605.12,22.34,0000 0000 0000 0000 000000
2016-09-23 01:21:35,0.01,0.08,0.00,17.28,23.05,26.38,14.77,48.44,1011.23,2054.02,3498.00,3168.99,3570.41,599.84,604.50,22.39,0000 0000 0000 0000 000000
2016-09-23 01:26:36,-0.00,0.08,0.00,17.37,23.07,26.43,14.80,48.44,1011.23,2054.02,3497.99,3168.98,3570.23,599.97,604.32,22.44,0000 0000 0000 0000 000000
2016-09-23 01:31:37,0.00,0.08,0.00,17.43,23.08,26.45,14.83,48.46,1011.23,2054.00,3497.97,3168.95,3570.08,600.14,604.38,22.49,0000 0000 0000 0000 000000
2016-09-23 01:36:39,0.00,0.08,0.00,17.52,23.10,26.49,14.89,48.35,1011.22,2054.00,3497.95,3168.63,3570.00,600.28,604.36,22.54,0000 0000 0000 0000 000000
2016-09-23 01:41:40,0.02,0.08,0.00,17.53,23.12,26.54,14.89,48.68,1011.22,2054.00,3497.68,3168.25,3569.98,599.93,604.05,22.59,0000 0000 0000 0000 000000
2016-09-23 01:46:41,0.00,0.08,0.00,17.66,23.14,26.57,14.80,48.29,1011.23,2053.99,3497.16,3168.03,3569.87,599.97,603.74,22.64,0000 0000 0000 0000 000000
2016-09-23 01:51:43,0.01,0.08,0.00,17.70,23.17,26.65,14.82,48.52,1011.23,2053.99,3497.13,3168.02,3569.51,600.11,603.76,22.69,0000 0000 0000 0000 000000
2016-09-23 01:56:44,-0.00,0.08,0.00,17.73,23.20,26.70,14.80,48.47,1011.23,2053.95,3497.00,3168.00,3569.01,599.91,603.68,22.74,0000 0000 0000 0000 000000
2016-09-23 02:01:45,-0.04,0.08,0.00,17.83,23.23,26.73,14.89,48.58,1011.24,2053.67,3496.98,3167.93,3568.98,600.18,603.59,22.79,0000 0000 0000 0000 000000
2016-09-23 02:06:46,-0.02,0.08,0.00,17.89,23.26,26.75,14.76,48.41,1011.24,2053.10,3496.92,3167.50,3568.63,600.06,603.29,22.84,0000 0000 0000 0000 000000
2016-09-23 02:11:47,0.02,0.08,0.00,17.95,23.30,26.81,14.86,48.51,1011.24,2053.02,3496.53,3167.08,3568.09,600.16,603.33,22.89,0000 0000 0000 0000 000000
2016-09-23 02:16:48,0.00,0.08,0.00,17.98,23.33,26.79,14.74,48.30,1011.24,2053.00,3496.03,3167.00,3568.00,599.97,603.12,22.94,0000 0000 0000 0000 000000
2016-09-23 02:21:50,0.00,0.08,0.00,18.03,23.36,26.81,14.73,48.37,1011.24,2053.00,3496.00,3166.99,3567.99,599.82,602.85,22.99,0000 0000 0000 0000 000000
2016-09-23 02:26:51,0.02,0.08,0.00,18.14,23.40,26.82,14.83,48.20,1011.24,2052.97,3495.94,3166.62,3567.51,600.06,602.96,23.04,0000 0000 0000 0000 000000
2016-09-23 02:31:52,0.02,0.08,0.00,18.19,23.44,26.83,14.81,48.31,1011.23,2052.94,3495.34,3166.07,3567.03,600.12,602.73,23.09,0000 0000 0000 0000 000000
2016-09-23 02:36:53,-0.04,0.08,0.00,18.21,23.48,26.84,14.77,48.23,1011.22,2052.61,3495.02,3166.00,3566.98,599.85,602.45,23.14,0000 0000 0000 0000 000000
2016-09-23 02:41:55,-0.01,0.08,0.00,18.28,23.52,26.89,14.82,48.50,1011.21,2052.20,3495.00,3166.00,3566.67,600.16,602.59,23.19,0000 0000 0000 0000 000000
2016-09-23 02:46:56,0.02,0.08,0.00,18.34,23.56,26.93,14.78,48.42,1011.19,2052.01,3494.67,3165.62,3566.04,600.15,602.48,23.24,0000 0000 0000 0000 000000
2016-09-23 02:51:57,0.01,0.08,0.00,18.40,23.60,26.99,14.72,48.16,1011.18,2052.00,3494.07,3165.06,3565.98,599.72,601.95,23.29,0000 0000 0000 0000 000000
2016-09-23 02:56:59,0.00,0.08,0.00,18.48,23.65,27.03,14.76,48.33,1011.08,2052.00,3494.00,3165.00,3565.67,600.17,602.22,23.34,0000 0000 0000 0000 000000
2016-09-23 03:02:00,0.00,0.08,0.00,18.53,23.69,27.07,14.76,48.39,1011.11,2051.96,3493.90,3164.93,3565.04,600.09,602.07,23.39,0000 0000 0000 0000 000000
2016-09-23 03:07:01,-0.01,0.08,0.00,18.58,23.74,27.11,14.78,48.26,1011.09,2051.66,3493.19,3164.25,3564.93,600.20,601.98,23.44,0000 0000 0000 0000 000000
2016-09-23 03:12:03,-0.03,0.08,0.00,18.60,23.78,27.15,14.70,48.26,1011.12,2051.08,3493.00,3164.00,3564.15,599.84,601.56,23.49,0000 0000 0000 0000 000000
2016-09-23 03:17:04,0.00,0.08,0.00,18.69,23.83,27.20,14.76,48.31,1011.15,2051.00,3492.93,3163.98,3564.00,600.13,601.67,23.54,0000 0000 0000 0000 000000
2016-09-23 03:22:05,0.03,0.08,0.00,18.71,23.87,27.22,14.81,48.46,1011.18,2051.00,3492.30,3163.54,3563.85,600.15,601.72,23.59,0000 0000 0000 0000 000000
2016-09-23 03:27:06,0.02,0.08,0.00,18.74,23.92,27.27,14.81,48.38,1011.18,2050.98,3492.01,3163.03,3563.14,600.34,601.83,23.64,0000 0000 0000 0000 000000
2016-09-23 03:32:07,-0.02,0.08,0.00,18.82,23.96,27.31,14.82,48.30,1011.20,2050.78,3491.95,3163.00,3562.98,600.20,601.48,23.69,0000 0000 0000 0000 000000
2016-09-23 03:37:08,-0.02,0.08,0.00,18.87,24.01,27.36,14.69,48.27,1011.20,2050.18,3491.31,3162.72,3562.51,599.91,601.14,23.74,0000 0000 0000 0000 000000
2016-09-23 03:42:10,0.01,0.08,0.00,18.95,24.06,27.41,14.63,48.13,1011.23,2050.02,3491.01,3162.06,3562.03,599.79,600.85,23.79,0000 0000 0000 0000 000000
2016-09-23 03:47:11,0.00,0.08,0.00,18.97,24.10,27.45,14.69,48.18,1011.24,2050.00,3490.98,3162.00,3561.98,599.87,600.94,23.84,0000 0000 0000 0000 000000
2016-09-23 03:52:12,0.02,0.08,0.00,19.01,24.15,27.50,14.74,48.13,1011.24,2050.00,3490.45,3161.92,3561.45,599.94,600.91,23.89,0000 0000 0000 0000 000000
2016-09-23 03:57:14,0.02,0.08,0.00,19.12,24.19,27.55,14.75,48.22,1011.24,2049.97,3490.02,3161.18,3561.01,600.16,600.93,23.94,0000 0000 0000 0000 000000
2016-09-23 04:02:14,-0.04,0.08,0.00,19.16,24.24,27.60,14.66,48.08,1011.24,2049.61,3489.93,3161.00,3560.83,600.04,600.61,23.99,0000 0000 0000 0000 000000
2016-09-23 04:07:16,-0.01,0.08,0.00,19.18,24.29,27.65,14.72,48.27,1011.24,2049.17,3489.40,3160.96,3560.17,600.52,601.11,24.04,0000 0000 0000 0000 000000
2016-09-23 04:12:17,0.02,0.08,0.00,19.25,24.34,27.70,14.71,48.24,1011.24,2049.01,3489.02,3160.35,3560.00,599.86,600.36,24.09,0000 0000 0000 0000 000000
2016-09-23 04:17:18,0.01,0.08,0.00,19.32,24.38,27.74,14.69,48.20,1011.24,2049.00,3488.94,3160.01,3559.75,599.85,600.27,24.14,0000 0000 0000 0000 000000
2016-09-23 04:22:20,0.03,0.08,0.00,19.33,24.43,27.77,14.73,48.23,1011.24,2049.00,3488.13,3159.74,3559.08,599.85,600.11,24.19,0000 0000 0000 0000 000000
2016-09-23 04:27:21,0.03,0.08,0.00,19.34,24.47,27.83,14.75,48.45,1011.24,2048.97,3487.55,3159.02,3558.41,600.48,600.84,24.24,0000 0000 0000 0000 000000
2016-09-23 04:32:22,0.02,0.08,0.00,19.45,24.52,27.90,14.73,48.10,1011.24,2048.82,3486.90,3158.39,3557.92,600.03,600.15,24.29,0000 0000 0000 0000 000000
2016-09-23 04:37:24,0.01,0.08,0.00,19.48,24.56,27.94,14.66,48.13,1011.25,2048.28,3485.64,3157.64,3556.85,600.08,600.04,24.34,0000 0000 0000 0000 000000
2016-09-23 04:42:25,0.05,0.09,0.00,19.53,24.61,27.97,14.64,48.12,1011.25,2048.04,3484.10,3156.39,3555.63,599.67,599.55,24.39,0000 0000 0000 0000 000000
2016-09-23 04:47:26,0.02,0.09,0.00,19.60,24.65,28.02,14.70,48.24,1011.25,2048.00,3483.32,3156.00,3555.01,600.00,599.78,24.44,0000 0000 0000 0000 000000
2016-09-23 04:52:27,0.04,0.09,0.00,19.59,24.70,28.06,14.65,48.17,1011.25,2047.99,3482.73,3155.35,3554.29,599.75,599.56,24.49,0000 0000 0000 0000 000000
2016-09-23 04:57:28,0.28,0.10,0.00,19.59,24.74,28.09,14.68,48.28,1011.25,2047.93,3477.68,3152.18,3550.82,600.09,599.93,24.54,0000 0000 0000 0000 000000
2016-09-23 05:02:30,3.20,0.18,0.00,19.63,24.78,28.14,14.66,48.25,1011.26,2047.27,3429.86,3115.69,3511.25,599.86,599.47,24.59,0000 0000 0000 0000 000000
2016-09-23 05:07:31,3.44,0.37,0.00,19.73,24.83,28.18,14.70,48.21,1011.26,2047.00,3351.45,3055.52,3446.07,600.25,599.76,24.64,0000 0000 0000 0000 000000
2016-09-23 05:12:32,1.60,0.51,0.00,19.77,24.87,28.24,14.69,48.10,1011.26,2047.00,3305.95,3020.58,3408.17,599.90,599.34,24.69,0000 0000 0000 0000 000000
2016-09-23 05:17:33,0.08,0.53,0.00,19.83,24.92,28.27,14.71,48.02,1011.28,2046.98,3301.16,3017.10,3404.27,599.79,599.06,24.74,0000 0000 0000 0000 000000
2016-09-23 05:22:34,0.01,0.53,0.00,19.88,24.96,28.31,14.64,48.15,1011.26,2046.87,3300.33,3016.68,3403.92,599.83,599.09,24.79,0000 0000 0000 0000 000000
2016-09-23 05:27:36,-0.03,0.53,0.17,19.90,24.99,28.37,14.71,48.07,1011.26,2046.34,3300.00,3016.07,3403.23,600.05,599.29,24.84,0000 0000 0000 0000 000000
2016-09-23 05:32:37,0.02,0.53,1.00,19.91,25.04,28.40,14.69,48.11,1011.26,2046.02,3299.38,3015.80,3402.71,599.81,598.98,24.89,0000 0000 0000 0000 000000
2016-09-23 05:37:38,0.02,0.53,1.00,19.98,25.08,28.46,14.62,48.09,1011.26,2045.99,3298.87,3015.06,3402.03,599.67,598.68,24.94,0000 0000 0000 0000 000000
2016-09-23 05:42:40,0.01,0.53,1.00,20.05,25.12,28.48,14.65,48.08,1011.28,2045.97,3298.11,3015.00,3401.97,599.89,598.89,24.99,0000 0000 0000 0000 000000
2016-09-23 05:47:41,0.01,0.53,1.00,20.05,25.16,28.54,14.61,48.07,1011.27,2045.87,3297.80,3014.72,3401.25,599.37,598.33,25.04,0000 0000 0000 0000 000000
2016-09-23 05:52:42,-0.03,0.53,1.00,20.09,25.21,28.58,14.63,48.04,1011.26,2045.25,3297.04,3014.03,3400.96,599.93,598.70,25.09,0000 0000 0000 0000 000000
2016-09-23 05:57:44,0.03,0.53,0.80,20.10,25.25,28.61,14.71,48.13,1011.27,2045.02,3296.36,3013.61,3400.20,599.98,598.74,25.14,0000 0000 0000 0000 000000
2016-09-23 06:02:45,0.00,0.53,0.00,20.12,25.29,28.67,14.73,48.23,1011.27,2045.00,3296.00,3013.02,3399.94,600.54,599.17,25.19,0000 0000 0000 0000 000000
2016-09-23 06:07:46,0.02,0.53,0.00,20.21,25.33,28.71,14.59,47.98,1011.28,2045.00,3295.80,3012.95,3399.23,599.44,598.03,25.24,0000 0000 0000 0000 000000
2016-09-23 06:12:47,0.03,0.53,0.00,20.27,25.37,28.74,14.64,48.00,1011.30,2044.96,3295.05,3012.22,3398.97,599.85,598.28,25.29,0000 0000 0000 0000 000000
2016-09-23 06:17:48,-0.02,0.53,0.00,20.32,25.42,28.77,14.59,48.14,1011.28,2044.55,3294.87,3012.00,3398.27,599.82,598.15,25.34,0000 0000 0000 0000 000000
2016-09-23 06:22:50,-0.00,0.53,0.00,20.32,25.46,28.82,14.60,48.07,1011.28,2044.16,3294.12,3011.48,3397.93,599.86,598.12,25.39,0000 0000 0000 0000 000000
2016-09-23 06:27:51,0.01,0.53,0.00,20.34,25.50,28.86,14.64,48.08,1011.27,2044.01,3293.88,3011.00,3397.11,599.91,598.22,25.44,0000 0000 0000 0000 000000
2016-09-23 06:32:52,0.05,0.53,0.00,20.41,25.54,28.89,14.62,48.00,1011.26,2044.00,3292.94,3010.29,3396.48,599.80,597.93,25.49,0000 0000 0000 0000 000000
2016-09-23 06:37:53,0.06,0.54,0.00,20.40,25.58,28.94,14.65,48.09,1011.27,2043.99,3291.59,3009.24,3395.28,600.19,598.34,25.54,0000 0000 0000 0000 000000
2016-09-23 06:42:54,0.01,0.54,0.00,20.44,25.62,28.98,14.64,48.08,1011.29,2043.90,3290.99,3008.71,3394.67,599.94,598.18,25.59,0000 0000 0000 0000 000000
2016-09-23 06:47:55,-0.01,0.54,0.00,20.51,25.66,29.00,14.58,47.93,1011.31,2043.42,3290.42,3008.07,3394.06,600.06,597.95,25.65,0000 0000 0000 0000 000000
2016-09-23 06:52:57,-0.02,0.54,0.00,20.57,25.69,29.05,14.68,47.99,1011.33,2043.07,3290.00,3008.00,3393.93,599.93,597.74,25.69,0000 0000 0000 0000 000000
2016-09-23 06:57:58,0.05,0.54,0.00,20.57,25.73,29.09,14.70,48.17,1011.33,2043.01,3289.39,3007.44,3393.12,600.20,598.12,25.75,0000 0000 0000 0000 000000
2016-09-23 07:02:59,0.01,0.54,0.00,20.58,25.77,29.13,14.58,48.00,1011.31,2043.00,3288.99,3007.01,3392.81,599.57,597.39,25.80,0000 0000 0000 0000 000000
2016-09-23 07:08:00,0.04,0.54,0.00,20.62,25.81,29.19,14.63,48.17,1011.31,2042.98,3288.16,3006.41,3392.02,600.03,597.83,25.85,0000 0000 0000 0000 000000
2016-09-23 07:13:02,0.02,0.54,0.00,20.68,25.85,29.24,14.60,47.99,1011.31,2042.86,3287.53,3005.98,3391.26,600.05,597.66,25.90,0000 0000 0000 0000 000000
2016-09-23 07:18:03,-0.01,0.54,0.00,20.70,25.89,29.27,14.62,47.99,1011.31,2042.38,3286.55,3005.31,3390.81,600.50,598.06,25.95,0000 0000 0000 0000 000000
2016-09-23 07:23:04,0.00,0.54,0.00,20.73,25.93,29.29,14.65,48.17,1011.33,2042.06,3285.81,3004.94,3390.05,600.25,597.79,26.00,0000 0000 0000 0000 000000
2016-09-23 07:28:06,0.03,0.54,0.00,20.77,25.97,29.32,14.62,48.07,1011.28,2042.00,3285.10,3004.20,3389.93,599.77,597.23,26.05,0000 0000 0000 0000 000000
2016-09-23 07:33:07,0.07,0.55,0.00,20.83,26.00,29.36,14.63,48.05,1011.28,2042.00,3283.92,3003.34,3388.62,599.65,596.94,26.10,0000 0000 0000 0000 000000
2016-09-23 07:38:08,0.08,0.55,0.00,20.88,26.04,29.39,14.61,47.93,1011.28,2041.97,3281.49,3002.21,3387.26,599.93,597.15,26.15,0000 0000 0000 0000 000000
2016-09-23 07:43:09,0.00,0.55,0.00,20.88,26.08,29.42,14.68,47.98,1011.30,2041.70,3280.09,3001.62,3386.56,600.25,597.46,26.20,0000 0000 0000 0000 000000
2016-09-23 07:48:10,-0.03,0.55,0.00,20.91,26.12,29.47,14.63,47.96,1011.31,2041.14,3279.99,3001.03,3386.02,599.81,596.94,26.25,0000 0000 0000 0000 000000
2016-09-23 07:53:12,0.01,0.55,0.00,20.93,26.16,29.51,14.66,48.08,1011.29,2041.02,3279.43,3000.96,3385.84,600.32,597.42,26.30,0000 0000 0000 0000 000000
2016-09-23 07:58:13,0.17,0.55,0.00,20.96,26.19,29.53,14.65,48.05,1011.28,2041.00,3277.30,2999.26,3383.84,599.96,596.97,26.35,0000 0000 0000 0000 000000
2016-09-23 08:03:14,0.26,0.57,0.00,21.02,26.23,29.55,14.59,48.02,1011.28,2040.99,3271.50,2995.23,3379.07,599.69,596.70,26.40,0000 0000 0000 0000 000000
2016-09-23 08:08:16,0.02,0.58,0.00,21.01,26.26,29.54,14.64,48.02,1011.28,2040.96,3269.98,2994.00,3377.92,599.79,596.71,26.45,0000 0000 0000 0000 000000
2016-09-23 08:13:17,0.10,0.58,0.00,21.05,26.31,29.59,14.62,47.94,1011.28,2040.44,3267.35,2992.31,3375.50,599.98,596.87,26.50,0000 0000 0000 0000 000000
2016-09-23 08:18:18,0.02,0.58,0.00,21.09,26.34,29.63,14.65,48.02,1011.28,2040.09,3266.03,2991.11,3374.10,600.12,596.89,26.55,0000 0000 0000 0000 000000
2016-09-23 08:23:19,0.04,0.58,0.00,21.11,26.38,29.68,14.66,48.07,1011.28,2040.02,3265.24,2990.62,3373.52,600.06,596.76,26.60,0000 0000 0000 0000 000000
2016-09-23 08:28:21,0.56,0.60,0.00,21.13,26.41,29.74,14.62,48.14,1011.31,2040.00,3257.02,2984.70,3366.21,600.03,596.88,26.65,0000 0000 0000 0000 000000
2016-09-23 08:33:22,1.06,0.65,0.00,21.17,26.46,29.79,14.67,48.17,1011.31,2039.99,3236.25,2970.25,3348.43,600.36,596.97,26.70,0000 0000 0000 0000 000000
2016-09-23 08:38:23,0.54,0.68,0.00,21.26,26.49,29.83,14.59,48.12,1011.33,2039.97,3223.22,2961.20,3337.41,599.71,596.13,26.75,0000 0000 0000 0000 000000
2016-09-23 08:43:25,0.31,0.71,0.00,21.31,26.53,29.90,14.62,48.12,1011.39,2039.63,3214.97,2955.24,3330.18,600.19,596.53,26.80,0000 0000 0000 0000 000000
2016-09-23 08:48:26,-0.02,0.71,0.00,21.32,26.56,29.93,14.62,48.14,1011.35,2039.09,3213.90,2954.06,3329.01,600.19,596.51,26.85,0000 0000 0000 0000 000000
2016-09-23 08:53:27,-0.00,0.71,0.00,21.25,26.59,30.01,14.64,48.17,1011.32,2039.01,3213.70,2954.01,3329.00,599.84,596.31,26.90,0000 0000 0000 0000 000000
2016-09-23 08:58:28,0.07,0.71,0.00,21.30,26.62,30.05,14.63,48.23,1011.30,2039.00,3212.64,2953.37,3328.22,600.05,596.41,26.95,0000 0000 0000 0000 000000
2016-09-23 09:03:30,0.45,0.72,0.00,21.34,26.65,30.12,14.65,48.17,1011.31,2038.98,3205.17,2948.29,3322.05,600.20,596.46,27.00,0000 0000 0000 0000 000000
2016-09-23 09:08:31,0.88,0.76,0.00,21.40,26.68,30.14,14.57,48.17,1011.27,2038.89,3189.37,2937.28,3308.48,599.78,595.95,27.05,0000 0000 0000 0000 000000
2016-09-23 09:13:32,1.25,0.82,0.00,21.37,26.71,30.20,14.59,48.13,1011.27,2038.28,3165.23,2920.29,3287.92,600.35,596.53,27.10,0000 0000 0000 0000 000000
2016-09-23 09:18:33,1.40,0.89,0.00,21.38,26.74,30.24,14.65,48.38,1011.27,2038.05,3137.71,2900.71,3264.51,599.83,596.03,27.15,0000 0000 0000 0000 000000
2016-09-23 09:23:35,0.34,0.93,0.00,21.43,26.77,30.28,14.58,48.19,1011.27,2038.00,3125.55,2891.96,3254.06,599.74,595.80,27.20,0000 0000 0000 0000 000000
2016-09-23 09:28:36,-0.03,0.93,0.37,21.48,26.80,30.32,14.63,48.22,1011.27,2038.00,3125.44,2891.93,3253.96,600.05,596.04,27.25,0000 0000 0000 0000 000000
2016-09-23 09:33:37,-0.00,0.93,1.00,21.50,26.83,30.35,14.64,48.08,1011.27,2037.99,3125.96,2891.99,3254.00,600.04,595.98,27.30,0000 0000 0000 0000 000000
2016-09-23 09:38:38,-0.00,0.93,1.00,21.50,26.86,30.39,14.72,48.33,1011.29,2037.96,3125.99,2891.99,3254.04,600.36,596.38,27.35,0000 0000 0000 0000 000000
2016-09-23 09:43:39,-0.02,0.93,1.00,21.53,26.88,30.44,14.64,48.10,1011.28,2037.78,3125.99,2891.98,3254.10,600.18,596.04,27.40,0000 0000 0000 0000 000000
2016-09-23 09:48:40,-0.03,0.93,1.00,21.52,26.91,30.46,14.60,48.17,1011.28,2037.21,3125.98,2891.84,3254.02,600.27,596.15,27.45,0000 0000 0000 0000 000000
2016-09-23 09:53:42,0.06,0.93,1.00,21.57,26.94,30.49,14.65,48.15,1011.26,2037.05,3124.98,2890.86,3253.41,600.00,595.72,27.50,0000 0000 0000 0000 000000
2016-09-23 09:58:43,0.29,0.94,0.60,21.59,26.96,30.52,14.61,48.03,1011.29,2037.01,3120.92,2887.90,3249.75,600.32,596.03,27.55,0000 0000 0000 0000 000000
2016-09-23 10:03:44,0.97,0.98,0.00,21.61,26.99,30.51,14.60,48.12,1011.46,2037.00,3105.08,2876.82,3236.03,600.05,595.81,27.60,0000 0000 0000 0000 000000
2016-09-23 10:08:45,0.95,1.03,0.00,21.64,27.01,30.56,14.58,48.17,1011.59,2036.98,3086.30,2863.63,3219.70,600.03,595.94,27.65,0000 0000 0000 0000 000000
2016-09-23 10:13:47,0.58,1.06,0.00,21.65,27.04,30.61,14.63,48.35,1011.42,2036.91,3073.82,2854.64,3208.74,599.96,595.62,27.70,0000 0000 0000 0000 000000
2016-09-23 10:18:48,0.34,1.08,0.00,21.67,27.07,30.62,14.63,48.17,1011.55,2036.68,3066.23,2849.01,3201.99,600.18,595.83,27.75,0000 0000 0000 0000 000000
2016-09-23 10:23:50,0.02,1.09,0.00,21.71,27.09,30.64,14.64,48.33,1011.62,2036.14,3064.01,2847.06,3199.98,599.76,595.51,27.80,0000 0000 0000 0000 000000
2016-09-23 10:28:51,-0.00,1.09,0.43,21.73,27.11,30.66,14.60,48.22,1011.68,2036.02,3063.98,2847.00,3199.96,600.00,595.68,27.85,0000 0000 0000 0000 000000
2016-09-23 10:33:52,0.00,1.09,1.00,21.70,27.14,30.69,14.59,48.13,1011.72,2036.00,3063.99,2846.97,3199.94,599.68,595.48,27.90,0000 0000 0000 0000 000000
2016-09-23 10:38:53,0.00,1.09,1.00,21.70,27.16,30.69,14.62,48.05,1011.73,2036.00,3063.99,2846.98,3199.98,600.15,595.92,27.95,0000 0000 0000 0000 000000
2016-09-23 10:43:54,0.00,1.09,1.00,21.75,27.18,30.72,14.54,47.83,1011.70,2036.00,3063.99,2846.98,3199.99,599.73,595.40,28.00,0000 0000 0000 0000 000000
2016-09-23 10:48:55,-0.01,1.09,1.00,21.78,27.20,30.75,14.61,48.15,1011.62,2036.00,3064.27,2846.99,3199.99,600.24,595.62,28.05,0000 0000 0000 0000 000000
2016-09-23 10:53:57,-0.01,1.09,1.00,21.76,27.22,30.75,14.62,48.32,1011.58,2035.94,3064.79,2846.99,3199.99,599.92,595.53,28.10,0000 0000 0000 0000 000000
2016-09-23 10:58:58,-0.04,1.09,0.57,21.79,27.25,30.77,14.62,47.89,1011.60,2035.64,3064.93,2846.99,3199.99,600.05,595.58,28.15,0000 0000 0000 0000 000000
2016-09-23 11:03:59,-0.03,1.08,0.00,21.83,27.27,30.80,14.66,48.20,1011.65,2035.12,3064.68,2846.96,3199.99,600.16,595.61,28.20,0000 0000 0000 0000 000000
2016-09-23 11:09:00,0.02,1.08,0.00,21.83,27.29,30.80,14.58,47.92,1011.65,2035.08,3064.42,2846.73,3199.98,599.55,595.09,28.25,0000 0000 0000 0000 000000
2016-09-23 11:14:02,0.02,1.08,0.00,21.84,27.31,30.83,14.60,48.06,1011.63,2035.04,3064.01,2846.06,3199.57,599.77,595.21,28.30,0000 0000 0000 0000 000000
2016-09-23 11:19:03,0.00,1.09,0.00,21.88,27.33,30.84,14.65,47.99,1011.61,2035.02,3063.98,2846.00,3199.04,600.08,595.39,28.35,0000 0000 0000 0000 000000
2016-09-23 11:24:04,0.00,1.09,0.00,21.88,27.35,30.86,14.55,47.98,1011.51,2035.00,3063.97,2845.99,3199.00,599.90,594.99,28.40,0000 0000 0000 0000 000000
2016-09-23 11:29:05,0.00,1.09,0.00,21.86,27.37,30.87,14.60,47.83,1011.36,2035.00,3063.98,2845.98,3199.00,600.32,595.66,28.45,0000 0000 0000 0000 000000
2016-09-23 11:34:06,0.00,1.09,0.00,21.89,27.39,30.90,14.59,47.87,1011.29,2034.99,3063.98,2845.99,3199.00,599.90,595.09,28.50,0000 0000 0000 0000 000000
2016-09-23 11:39:08,-0.00,1.09,0.00,21.95,27.41,30.94,14.56,47.85,1011.26,2034.97,3063.99,2845.99,3199.00,600.01,594.95,28.55,0000 0000 0000 0000 000000
2016-09-23 11:44:09,-0.01,1.09,0.00,21.95,27.42,30.94,14.51,47.88,1011.25,2034.86,3063.99,2845.98,3199.00,599.71,594.68,28.60,0000 0000 0000 0000 000000
2016-09-23 11:49:10,-0.04,1.08,0.00,21.95,27.45,30.95,14.55,47.86,1011.25,2034.53,3063.99,2845.98,3199.00,600.00,594.99,28.65,0000 0000 0000 0000 000000
2016-09-23 11:54:12,-0.01,1.08,0.00,21.95,27.46,30.96,14.61,47.83,1011.25,2034.18,3063.99,2845.92,3199.00,599.84,594.81,28.70,0000 0000 0000 0000 000000
2016-09-23 11:59:13,-0.00,1.08,0.00,21.95,27.47,30.98,14.54,47.78,1011.25,2034.06,3063.95,2845.65,3198.99,599.70,594.79,28.75,0000 0000 0000 0000 000000
2016-09-23 12:04:14,0.00,1.08,0.00,21.87,27.50,31.00,14.57,47.85,1011.25,2034.00,3063.93,2845.37,3198.99,599.81,594.96,28.80,0000 0000 0000 0000 000000
2016-09-23 12:09:15,0.01,1.08,0.00,21.91,27.51,31.02,14.63,47.73,1011.25,2034.01,3063.95,2845.17,3198.96,600.09,595.13,28.85,0000 0000 0000 0000 000000
2016-09-23 12:14:17,0.00,1.08,0.00,21.95,27.52,31.00,14.58,47.74,1011.25,2034.00,3063.93,2845.05,3198.92,600.07,595.04,28.90,0000 0000 0000 0000 000000
2016-09-23 12:19:18,0.00,1.08,0.00,22.00,27.55,30.98,14.54,47.73,1011.25,2034.00,3063.96,2845.05,3198.97,599.88,594.84,28.95,0000 0000 0000 0000 000000
2016-09-23 12:24:19,0.00,1.08,0.00,22.02,27.56,31.04,14.58,47.70,1011.24,2034.00,3063.92,2845.02,3198.87,600.02,594.89,29.00,0000 0000 0000 0000 000000
2016-09-23 12:29:20,0.01,1.08,0.00,22.04,27.57,31.06,14.64,47.74,1011.24,2033.99,3063.75,2845.01,3198.74,600.14,594.84,29.05,0000 0000 0000 0000 000000
2016-09-23 12:34:21,0.02,1.08,0.00,22.00,27.59,31.07,14.53,47.74,1011.24,2033.99,3063.05,2844.99,3198.10,600.00,594.88,29.10,0000 0000 0000 0000 000000
2016-09-23 12:39:23,0.00,1.08,0.00,22.01,27.60,31.07,14.61,47.90,1011.23,2033.96,3063.00,2844.96,3198.00,600.00,594.90,29.15,0000 0000 0000 0000 000000
2016-09-23 12:44:24,0.01,1.08,0.00,22.04,27.62,31.08,14.55,47.91,1011.22,2033.96,3062.95,2844.68,3198.00,600.05,594.80,29.20,0000 0000 0000 0000 000000
2016-09-23 12:49:25,0.01,1.09,0.00,22.02,27.63,31.09,14.52,47.85,1011.20,2033.89,3062.57,2844.12,3197.98,599.78,594.60,29.25,0000 0000 0000 0000 000000
2016-09-23 12:54:26,-0.03,1.08,0.00,22.04,27.65,31.10,14.62,47.77,1011.13,2033.55,3062.10,2844.02,3197.89,599.94,594.74,29.30,0000 0000 0000 0000 000000